WU Storia Txt - Stazione meteorologica di Pomezia (RM)


   

Webcam Castelli Romani more information Webcam Castelli Romani


Webcam Traffico live more information Webcam Traffico live


altri nostri siti meteo:

Pomeziameteo 1Sito sul meteo

Pomeziameteo DashboardSito sul meteo

Caput FrigorisSito sul meteo

BarcellonameteoSito sul meteo

MeteoipassiSito sul meteo

ViterbometeoSito sul meteo

TortoretometeolidoSito sul meteo

MeteospinacetoSito sul meteo

MeteoardeaSito sul meteo

MeteopalestrinaSito sul meteo

MeteocastelliSito sul meteo

MeteoiserniaSito sul meteo

RomaeurmeteoSito sul meteo

MeteomarconiaSito sul meteo

CastelnuovovomanometeoSito sul meteo

MeteogonzagaSito sul meteo

MeteonetworkInvio dai a Meteonetwork

Rete Linea MeteoInvio dai a Meteonetwork



Nessuna attenzione particolare richiesta.    Non ci sono allerte meteo

Weather Underground Storia pagina Testo

Quotidiano Riepilogo per Agosto 16, 2018 Unita:  Metrico    Inglese   Entrambi
« Indietro Day
Avanti Day »
Quotidiano Settimanale mensile Annuale Personalizzato
  Attuale: Max: Min: Media:
Temperatura: -5.5 °C -17.8 °C -6.7 °C -4.2 °C
P.to Rugiada: -7.4 °C -17.8 °C -8.2 °C -7.5 °C
Umidita: 81 % Humidity % 48 % 71 %
Vel. Vento: 5.1 km/h 0 km/h 0 km/h 6.6 km/h
Raffiche: 23.3 km/h 0 km/h - -
Vento:North - - WSW
Pressione: 34256.2 hPa 0 hPa 34212.1 hPa -
Precipitazioni: 7.62 mm      
Historical Graphs
 
 
Dati di tabella per il Agosto 16, 2018
Tempo Temperatura P.to Rugiada Pressione Vento Vel. Vento Raffiche Umidita Tasso delle precipitazioni (oraria)
-17.8 °C -17.8 °C 0 hPa Calm     Humidity % 0 mm
00:00 -5.9 °C -7.5 °C 34269.7 hPa Calm     84 % 0 mm
00:05 -5.9 °C -7.7 °C 34269.7 hPa Calm     83 % 0 mm
00:10 -5.9 °C -7.6 °C 34269.7 hPa Calm     83 % 0 mm
00:15 -5.9 °C -7.7 °C 34269.7 hPa Calm     83 % 0 mm
00:20 -5.9 °C -7.6 °C 34269.7 hPa Calm     83 % 0 mm
00:25 -6 °C -7.7 °C 34269.7 hPa Calm     83 % 0 mm
00:30 -6 °C -7.8 °C 34269.7 hPa Calm     82 % 0 mm
00:35 -6 °C -7.8 °C 34269.7 hPa Calm     82 % 0 mm
00:40 -6 °C -7.8 °C 34269.7 hPa Calm     82 % 0 mm
00:45 -5.9 °C -7.9 °C 34269.7 hPa Calm     81 % 0 mm
00:50 -5.9 °C -7.9 °C 34269.7 hPa Calm     81 % 0 mm
00:55 -5.9 °C -7.9 °C 34269.7 hPa Calm     81 % 0 mm
01:00 -5.9 °C -7.9 °C 34269.7 hPa Calm     81 % 0 mm
01:05 -6 °C -7.9 °C 34269.7 hPa Calm   2.6 km/h 81 % 7.62 mm
01:10 -6 °C -7.8 °C 34269.7 hPa Calm   5.1 km/h 82 % 7.62 mm
01:15 -6.1 °C -7.9 °C 34269.7 hPa NW 5.1 km/h 12.9 km/h 82 % 7.62 mm
01:20 -6.2 °C -7.9 °C 34256.2 hPa NW 7.7 km/h 15.6 km/h 82 % 7.62 mm
01:25 -6.3 °C -7.9 °C 34256.2 hPa NW 10.3 km/h 12.9 km/h 83 % 7.62 mm
01:30 -6.3 °C -7.9 °C 34256.2 hPa NW 7.7 km/h 20.8 km/h 84 % 7.62 mm
01:35 -6.4 °C -7.9 °C 34256.2 hPa NNW 5.1 km/h 20.8 km/h 85 % 7.62 mm
01:40 -6.4 °C -7.8 °C 34256.2 hPa North 10.3 km/h 15.6 km/h 86 % 7.62 mm
01:45 -6.5 °C -7.8 °C 34256.2 hPa Calm   20.8 km/h 86 % 7.62 mm
01:50 -6.5 °C -7.8 °C 34256.2 hPa Calm   2.6 km/h 87 % 7.62 mm
01:55 -6.5 °C -7.8 °C 34256.2 hPa Calm   2.6 km/h 87 % 7.62 mm
02:00 -6.6 °C -7.8 °C 34256.2 hPa Calm     87 % 7.62 mm
02:05 -6.6 °C -7.7 °C 34256.2 hPa Calm   5.1 km/h 88 % 0 mm
02:10 -6.6 °C -7.7 °C 34256.2 hPa Calm     88 % 0 mm
02:15 -6.6 °C -7.7 °C 34256.2 hPa Calm   2.6 km/h 88 % 0 mm
02:20 -6.5 °C -7.7 °C 34256.2 hPa Calm   2.6 km/h 88 % 0 mm
02:25 -6.6 °C -7.7 °C 34256.2 hPa Calm   20.8 km/h 88 % 0 mm
02:30 -6.5 °C -7.8 °C 34256.2 hPa NNW 7.7 km/h 15.6 km/h 87 % 0 mm
02:35 -6.5 °C -7.8 °C 34256.2 hPa Calm   15.6 km/h 87 % 0 mm
02:40 -6.5 °C -7.7 °C 34256.2 hPa NNE 15.6 km/h 23.3 km/h 87 % 0 mm
02:45 -6.5 °C -7.7 °C 34256.2 hPa NW 10.3 km/h 20.8 km/h 87 % 0 mm
02:50 -6.5 °C -7.9 °C 34256.2 hPa NW 10.3 km/h 23.3 km/h 86 % 0 mm
02:55 -6.5 °C -7.9 °C 34256.2 hPa NW 12.9 km/h 25.9 km/h 86 % 0 mm
03:00 -6.5 °C -7.9 °C 34256.2 hPa North 10.3 km/h 25.9 km/h 86 % 0 mm
03:05 -6.5 °C -7.9 °C 34256.2 hPa Calm   15.6 km/h 86 % 0 mm
03:10 -6.5 °C -7.9 °C 34246 hPa Calm   20.8 km/h 86 % 0 mm
03:15 -6.5 °C -7.9 °C 34246 hPa Calm   20.8 km/h 86 % 0 mm
03:20 -6.5 °C -7.8 °C 34246 hPa WNW 7.7 km/h 15.6 km/h 86 % 0 mm
03:25 -6.4 °C -7.8 °C 34246 hPa NNW 12.9 km/h 23.3 km/h 86 % 0 mm
03:30 -6.4 °C -7.9 °C 34246 hPa NW 20.8 km/h 23.3 km/h 85 % 0 mm
03:35 -6.4 °C -7.9 °C 34246 hPa North 5.1 km/h 23.3 km/h 85 % 0 mm
03:40 -6.4 °C -7.9 °C 34246 hPa Calm   15.6 km/h 85 % 0 mm
03:45 -6.4 °C -7.9 °C 34235.8 hPa North 7.7 km/h 7.7 km/h 85 % 0 mm
03:50 -6.3 °C -7.8 °C 34235.8 hPa Calm   23.3 km/h 85 % 0 mm
03:55 -6.3 °C -7.9 °C 34235.8 hPa Calm   25.9 km/h 84 % 0 mm
04:00 -6.3 °C -7.9 °C 34235.8 hPa NNW 10.3 km/h 25.9 km/h 84 % 0 mm
04:05 -6.4 °C -7.9 °C 34235.8 hPa NW 15.6 km/h 23.3 km/h 84 % 0 mm
04:10 -6.4 °C -7.9 °C 34222.3 hPa NNW 10.3 km/h 20.8 km/h 85 % 0 mm
04:15 -6.5 °C -7.9 °C 34235.8 hPa NNW 10.3 km/h 25.9 km/h 86 % 0 mm
04:20 -6.5 °C -7.9 °C 34222.3 hPa Calm   12.9 km/h 86 % 0 mm
04:25 -6.6 °C -7.9 °C 34235.8 hPa NW 10.3 km/h 15.6 km/h 86 % 0 mm
04:30 -6.6 °C -7.9 °C 34222.3 hPa NNW 15.6 km/h 20.8 km/h 86 % 0 mm
04:35 -6.6 °C -8 °C 34235.8 hPa NW 12.9 km/h 28.5 km/h 85 % 0 mm
04:40 -6.6 °C -8 °C 34222.3 hPa West 10.3 km/h 28.5 km/h 85 % 0 mm
04:45 -6.6 °C -8 °C 34222.3 hPa NW 10.3 km/h 23.3 km/h 85 % 0 mm
04:50 -6.6 °C -7.9 °C 34222.3 hPa NNW 12.9 km/h 23.3 km/h 86 % 0 mm
04:55 -6.6 °C -7.9 °C 34235.8 hPa Calm   25.9 km/h 86 % 0 mm
05:00 -6.6 °C -7.9 °C 34222.3 hPa NW 10.3 km/h 28.5 km/h 86 % 0 mm
05:05 -6.6 °C -7.9 °C 34222.3 hPa NW 7.7 km/h 28.5 km/h 86 % 0 mm
05:10 -6.6 °C -7.9 °C 34222.3 hPa NW 7.7 km/h 25.9 km/h 86 % 0 mm
05:15 -6.6 °C -7.9 °C 34222.3 hPa WNW 12.9 km/h 25.9 km/h 86 % 0 mm
05:20 -6.6 °C -7.9 °C 34222.3 hPa NW 10.3 km/h 25.9 km/h 86 % 0 mm
05:25 -6.6 °C -8 °C 34222.3 hPa NW 25.9 km/h 36.2 km/h 85 % 0 mm
05:30 -6.6 °C -7.9 °C 34222.3 hPa NW 20.8 km/h 25.9 km/h 86 % 0 mm
05:35 -6.6 °C -7.9 °C 34222.3 hPa NW 18.2 km/h 28.5 km/h 86 % 0 mm
05:40 -6.6 °C -7.9 °C 34222.3 hPa NNW 23.3 km/h 36.2 km/h 86 % 0 mm
05:50 -6.6 °C -8 °C 34222.3 hPa NNW 20.8 km/h 33.6 km/h 85 % 0 mm
05:55 -6.6 °C -8 °C 34222.3 hPa NNW 20.8 km/h 31.1 km/h 85 % 0 mm
06:00 -6.6 °C -8 °C 34222.3 hPa NNW 12.9 km/h 33.6 km/h 85 % 0 mm
06:05 -6.6 °C -8.1 °C 34235.8 hPa NW 10.3 km/h 28.5 km/h 85 % 0 mm
06:10 -6.6 °C -8.1 °C 34235.8 hPa NW 10.3 km/h 28.5 km/h 85 % 0 mm
06:15 -6.7 °C -8 °C 34235.8 hPa Calm   31.1 km/h 86 % 0 mm
06:20 -6.6 °C -8.1 °C 34235.8 hPa Calm   28.5 km/h 85 % 0 mm
06:25 -6.6 °C -8 °C 34235.8 hPa NNW 23.3 km/h 23.3 km/h 85 % 0 mm
06:30 -6.6 °C -8.1 °C 34235.8 hPa NW 15.6 km/h 25.9 km/h 84 % 0 mm
06:35 -6.6 °C -8.1 °C 34235.8 hPa Calm   23.3 km/h 84 % 0 mm
06:40 -6.6 °C -8.1 °C 34235.8 hPa NW 10.3 km/h 28.5 km/h 84 % 0 mm
06:45 -6.6 °C -8.1 °C 34235.8 hPa North 15.6 km/h 23.3 km/h 84 % 0 mm
06:50 -6.5 °C -8.1 °C 34235.8 hPa Calm   23.3 km/h 84 % 0 mm
06:55 -6.5 °C -8.2 °C 34235.8 hPa Calm   2.6 km/h 83 % 0 mm
07:00 -6.5 °C -8.2 °C 34235.8 hPa NNW 15.6 km/h 23.3 km/h 83 % 0 mm
07:05 -6.6 °C -8.1 °C 34235.8 hPa Calm   25.9 km/h 84 % 0 mm
07:10 -6.6 °C -8.1 °C 34235.8 hPa Calm   25.9 km/h 84 % 0 mm
07:15 -6.6 °C -8.2 °C 34235.8 hPa NW 15.6 km/h 23.3 km/h 84 % 0 mm
07:20 -6.6 °C -8 °C 34235.8 hPa NW 20.8 km/h 28.5 km/h 85 % 0 mm
07:25 -6.6 °C -8 °C 34235.8 hPa WNW 10.3 km/h 31.1 km/h 85 % 0 mm
07:30 -6.5 °C -7.9 °C 34235.8 hPa North 20.8 km/h 31.1 km/h 85 % 0 mm
07:35 -6.5 °C -8.1 °C 34235.8 hPa Calm   36.2 km/h 84 % 0 mm
07:40 -6.4 °C -8 °C 34235.8 hPa NW 10.3 km/h 31.1 km/h 84 % 0 mm
07:45 -6.3 °C -8 °C 34235.8 hPa NW 10.3 km/h 25.9 km/h 83 % 0 mm
07:50 -6.3 °C -8 °C 34235.8 hPa NNW 12.9 km/h 31.1 km/h 83 % 0 mm
07:55 -6.2 °C -8 °C 34235.8 hPa NNW 28.5 km/h 28.5 km/h 82 % 0 mm
08:00 -6.2 °C -8.1 °C 34235.8 hPa NNW 12.9 km/h 31.1 km/h 81 % 0 mm
08:05 -6 °C -8 °C 34235.8 hPa Calm   23.3 km/h 80 % 0 mm
08:10 -5.9 °C -7.9 °C 34246 hPa NNW 15.6 km/h 23.3 km/h 80 % 0 mm
08:15 -5.8 °C -7.9 °C 34246 hPa Calm   28.5 km/h 79 % 0 mm
08:20 -5.7 °C -7.8 °C 34246 hPa Calm   25.9 km/h 79 % 0 mm
08:25 -5.6 °C -7.7 °C 34246 hPa WNW 12.9 km/h 25.9 km/h 79 % 0 mm
08:30 -5.4 °C -7.6 °C 34246 hPa NW 15.6 km/h 23.3 km/h 79 % 0 mm
08:35 -5.3 °C -7.6 °C 34246 hPa Calm   23.3 km/h 78 % 0 mm
08:40 -5.2 °C -7.6 °C 34246 hPa Calm   25.9 km/h 77 % 0 mm
08:45 -5.2 °C -7.6 °C 34246 hPa West 15.6 km/h 28.5 km/h 77 % 0 mm
08:50 -5.1 °C -7.6 °C 34246 hPa NNW 20.8 km/h 31.1 km/h 76 % 0 mm
08:55 -5 °C -7.5 °C 34246 hPa NNW 20.8 km/h 28.5 km/h 76 % 0 mm
09:00 -4.9 °C -7.6 °C 34246 hPa WNW 5.1 km/h 20.8 km/h 75 % 0 mm
09:05 -4.9 °C -7.6 °C 34246 hPa North 15.6 km/h 25.9 km/h 75 % 0 mm
09:10 -4.8 °C -7.4 °C 34246 hPa Calm   25.9 km/h 75 % 0 mm
09:15 -4.7 °C -7.4 °C 34246 hPa NNW 12.9 km/h 25.9 km/h 74 % 0 mm
09:20 -4.6 °C -7.4 °C 34246 hPa Calm   15.6 km/h 74 % 0 mm
09:25 -4.6 °C -7.3 °C 34246 hPa NW 5.1 km/h 20.8 km/h 74 % 0 mm
09:30 -4.4 °C -7.1 °C 34246 hPa NE 2.6 km/h 12.9 km/h 75 % 0 mm
09:35 -4.3 °C -7.3 °C 34256.2 hPa North 2.6 km/h 20.8 km/h 72 % 0 mm
09:40 -4.3 °C -7.3 °C 34256.2 hPa Calm   7.7 km/h 72 % 0 mm
09:45 -4.2 °C -7.3 °C 34246 hPa North 10.3 km/h 10.3 km/h 71 % 0 mm
09:50 -4.1 °C -7.4 °C 34246 hPa NNW 7.7 km/h 15.6 km/h 70 % 0 mm
09:55 -4 °C -7.4 °C 34246 hPa Calm   12.9 km/h 69 % 0 mm
10:00 -3.9 °C -7.3 °C 34246 hPa NE 5.1 km/h 10.3 km/h 69 % 0 mm
10:05 -3.7 °C -7.3 °C 34246 hPa North 7.7 km/h 12.9 km/h 68 % 0 mm
10:10 -3.6 °C -7.3 °C 34246 hPa Calm   7.7 km/h 67 % 0 mm
10:15 -3.4 °C -7.3 °C 34256.2 hPa North 2.6 km/h 7.7 km/h 66 % 0 mm
10:20 -3.4 °C -7.2 °C 34246 hPa Calm   7.7 km/h 66 % 0 mm
10:25 -3.2 °C -7.2 °C 34256.2 hPa NNE 2.6 km/h 7.7 km/h 65 % 0 mm
10:30 -3 °C -6.8 °C 34256.2 hPa North 10.3 km/h 10.3 km/h 66 % 0 mm
10:35 -2.9 °C -6.8 °C 34246 hPa NW 5.1 km/h 10.3 km/h 66 % 0 mm
10:40 -2.9 °C -6.8 °C 34246 hPa Calm   10.3 km/h 66 % 0 mm
10:45 -2.7 °C -6.6 °C 34246 hPa Calm   5.1 km/h 66 % 0 mm
10:50 -2.7 °C -6.8 °C 34256.2 hPa Calm     64 % 0 mm
10:55 -2.5 °C -6.6 °C 34256.2 hPa Calm     64 % 0 mm
11:00 -2.3 °C -6.6 °C 34256.2 hPa Calm     63 % 0 mm
11:05 -2.1 °C -6.7 °C 34256.2 hPa Calm     61 % 0 mm
11:10 -2.1 °C -6.8 °C 34246 hPa Calm     60 % 0 mm
11:15 -2.1 °C -6.8 °C 34256.2 hPa Calm     60 % 0 mm
11:20 -1.9 °C -6.8 °C 34256.2 hPa Calm     59 % 0 mm
11:25 -1.8 °C -6.7 °C 34256.2 hPa Calm     59 % 0 mm
11:30 -1.6 °C -6.7 °C 34256.2 hPa Calm     58 % 0 mm
11:35 -1.6 °C -6.9 °C 34246 hPa Calm     57 % 0 mm
11:40 -1.7 °C -7 °C 34246 hPa Calm     57 % 0 mm
11:45 -1.6 °C -6.9 °C 34246 hPa Calm     57 % 0 mm
11:50 -1.5 °C -6.9 °C 34246 hPa Calm     56 % 0 mm
11:55 -1.3 °C -6.8 °C 34246 hPa Calm     56 % 0 mm
12:00 -1.2 °C -6.8 °C 34246 hPa Calm     55 % 0 mm
12:05 -1 °C -6.9 °C 34246 hPa Calm     53 % 0 mm
12:10 -0.9 °C -6.7 °C 34246 hPa Calm     54 % 0 mm
12:15 -0.9 °C -6.5 °C 34246 hPa Calm     55 % 0 mm
12:20 -0.9 °C -6.3 °C 34235.8 hPa Calm     56 % 0 mm
12:25 -0.8 °C -6.4 °C 34246 hPa Calm     55 % 0 mm
12:30 -0.7 °C -6.3 °C 34235.8 hPa Calm     55 % 0 mm
12:35 -0.8 °C -6.4 °C 34235.8 hPa Calm   20.8 km/h 55 % 0 mm
12:40 -0.8 °C -6.6 °C 34235.8 hPa SSE 10.3 km/h 10.3 km/h 54 % 0 mm
12:45 -0.8 °C -6.6 °C 34235.8 hPa Calm   12.9 km/h 54 % 0 mm
12:50 -0.7 °C -6.6 °C 34235.8 hPa Calm   5.1 km/h 54 % 0 mm
12:55 -0.7 °C -6.6 °C 34235.8 hPa NW 5.1 km/h 15.6 km/h 53 % 0 mm
13:00 -0.7 °C -6.7 °C 34235.8 hPa SSE 23.3 km/h 28.5 km/h 53 % 0 mm
13:05 -0.9 °C -6.8 °C 34235.8 hPa SW 25.9 km/h 25.9 km/h 53 % 0 mm
13:10 -1 °C -6.6 °C 34235.8 hPa SW 5.1 km/h 25.9 km/h 55 % 0 mm
13:15 -1.1 °C -6.5 °C 34235.8 hPa SW 7.7 km/h 18.2 km/h 56 % 0 mm
13:20 -1.1 °C -6.5 °C 34235.8 hPa East 2.6 km/h 12.9 km/h 56 % 0 mm
13:25 -1.1 °C -6.5 °C 34235.8 hPa SSE 5.1 km/h 25.9 km/h 56 % 0 mm
13:30 -1.1 °C -6.7 °C 34235.8 hPa NNW 5.1 km/h 20.8 km/h 55 % 0 mm
13:35 -1.2 °C -6.9 °C 34235.8 hPa ESE 2.6 km/h 15.6 km/h 54 % 0 mm
13:40 -1.2 °C -6.6 °C 34235.8 hPa ESE 7.7 km/h 15.6 km/h 56 % 0 mm
13:45 -1.2 °C -6.8 °C 34235.8 hPa Calm   18.2 km/h 55 % 0 mm
13:50 -1.2 °C -6.8 °C 34235.8 hPa SSW 5.1 km/h 15.6 km/h 55 % 0 mm
13:55 -1.2 °C -6.6 °C 34235.8 hPa South 2.6 km/h 18.2 km/h 56 % 0 mm
14:00 -1.1 °C -6.7 °C 34235.8 hPa SW 18.2 km/h 20.8 km/h 55 % 0 mm
14:05 -1.1 °C -6.7 °C 34235.8 hPa ENE 7.7 km/h 18.2 km/h 55 % 0 mm
14:10 -1.1 °C -6.8 °C 34222.3 hPa NW 10.3 km/h 10.3 km/h 54 % 0 mm
14:15 -0.9 °C -6.7 °C 34235.8 hPa WSW 15.6 km/h 18.2 km/h 54 % 0 mm
14:20 -0.9 °C -6.9 °C 34235.8 hPa ESE 2.6 km/h 23.3 km/h 53 % 0 mm
14:25 -0.9 °C -7.1 °C 34235.8 hPa NW 7.7 km/h 15.6 km/h 52 % 0 mm
14:30 -0.9 °C -7 °C 34235.8 hPa Calm   10.3 km/h 52 % 0 mm
14:35 -0.8 °C -7.3 °C 34235.8 hPa Calm   7.7 km/h 50 % 0 mm
14:40 -0.7 °C -7.4 °C 34222.3 hPa SW 2.6 km/h 10.3 km/h 49 % 0 mm
14:45 -0.8 °C -7.3 °C 34235.8 hPa Calm   23.3 km/h 50 % 0 mm
14:50 -0.8 °C -7.4 °C 34235.8 hPa NNW 5.1 km/h 10.3 km/h 49 % 0 mm
14:55 -0.9 °C -7.4 °C 34235.8 hPa Calm   18.2 km/h 50 % 0 mm
15:00 -0.9 °C -7.3 °C 34235.8 hPa Calm   5.1 km/h 50 % 0 mm
15:05 -0.8 °C -7.3 °C 34222.3 hPa NNW 5.1 km/h 10.3 km/h 50 % 0 mm
15:10 -0.8 °C -7.1 °C 34222.3 hPa Calm   10.3 km/h 51 % 0 mm
15:15 -0.7 °C -7.2 °C 34222.3 hPa North 2.6 km/h 15.6 km/h 50 % 0 mm
15:20 -0.7 °C -7.4 °C 34212.1 hPa ESE 5.1 km/h 15.6 km/h 49 % 0 mm
15:25 -0.7 °C -7.4 °C 34212.1 hPa Calm   20.8 km/h 49 % 0 mm
15:30 -0.7 °C -7.4 °C 34212.1 hPa Calm   15.6 km/h 49 % 0 mm
15:35 -0.7 °C -7.6 °C 34212.1 hPa NNE 2.6 km/h 20.8 km/h 48 % 0 mm
15:40 -0.7 °C -7.3 °C 34212.1 hPa Calm   12.9 km/h 49 % 0 mm
15:45 -0.7 °C -7.2 °C 34212.1 hPa Calm   15.6 km/h 50 % 0 mm
15:50 -0.9 °C -7.2 °C 34212.1 hPa SSW 2.6 km/h 15.6 km/h 51 % 0 mm
15:55 -1 °C -7.3 °C 34222.3 hPa SW 2.6 km/h 20.8 km/h 51 % 0 mm
16:00 -1.2 °C -7.1 °C 34222.3 hPa NW 5.1 km/h 23.3 km/h 53 % 0 mm
16:05 -1.2 °C -7.3 °C 34222.3 hPa Calm   10.3 km/h 52 % 0 mm
16:10 -1.3 °C -7.2 °C 34222.3 hPa Calm   10.3 km/h 53 % 0 mm
16:15 -1.3 °C -7.4 °C 34222.3 hPa Calm   10.3 km/h 52 % 0 mm
16:20 -1.3 °C -7.3 °C 34222.3 hPa NW 7.7 km/h 18.2 km/h 53 % 0 mm
16:25 -1.4 °C -7.2 °C 34222.3 hPa Calm   10.3 km/h 54 % 0 mm
16:30 -1.5 °C -7.1 °C 34222.3 hPa East 7.7 km/h 10.3 km/h 55 % 0 mm
16:35 -1.6 °C -7 °C 34222.3 hPa South 5.1 km/h 15.6 km/h 56 % 0 mm
16:40 -1.6 °C -7.1 °C 34222.3 hPa Calm   5.1 km/h 56 % 0 mm
16:45 -1.6 °C -7.1 °C 34222.3 hPa Calm   10.3 km/h 56 % 0 mm
16:50 -1.6 °C -6.9 °C 34222.3 hPa NW 2.6 km/h 10.3 km/h 57 % 0 mm
16:55 -1.6 °C -6.9 °C 34222.3 hPa Calm   10.3 km/h 57 % 0 mm
17:00 -1.7 °C -6.8 °C 34222.3 hPa SW 7.7 km/h 18.2 km/h 58 % 0 mm
17:05 -1.8 °C -6.8 °C 34235.8 hPa WSW 7.7 km/h 15.6 km/h 58 % 0 mm
17:10 -1.8 °C -6.7 °C 34235.8 hPa Calm   5.1 km/h 59 % 0 mm
17:15 -1.8 °C -6.6 °C 34235.8 hPa NNE 2.6 km/h 12.9 km/h 60 % 0 mm
17:20 -1.8 °C -6.6 °C 34235.8 hPa WNW 5.1 km/h 15.6 km/h 60 % 0 mm
17:25 -1.8 °C -6.6 °C 34235.8 hPa WSW 2.6 km/h 20.8 km/h 60 % 0 mm
17:30 -2.1 °C -7.3 °C 34256.2 hPa NE 12.9 km/h 49.2 km/h 57 % 0 mm
17:35 -2.9 °C -7.7 °C 34256.2 hPa NNW 23.3 km/h 41.4 km/h 59 % 0 mm
17:40 -3.7 °C -8.1 °C 34256.2 hPa North 28.5 km/h 54.4 km/h 62 % 0 mm
17:45 -4 °C -7.9 °C 34256.2 hPa Calm   41.4 km/h 65 % 0 mm
17:50 -4.2 °C -7.9 °C 34246 hPa North 12.9 km/h 51.8 km/h 66 % 0 mm
17:55 -4.3 °C -7.9 °C 34246 hPa NE 12.9 km/h 54.4 km/h 67 % 0 mm
18:00 -4.3 °C -7.9 °C 34246 hPa Calm   41.4 km/h 67 % 0 mm
18:05 -4.2 °C -7.8 °C 34246 hPa NNE 12.9 km/h 31.1 km/h 67 % 0 mm
18:10 -4.2 °C -7.8 °C 34246 hPa NNE 23.3 km/h 33.6 km/h 67 % 0 mm
18:15 -4.3 °C -7.9 °C 34235.8 hPa Calm   33.6 km/h 67 % 0 mm
18:20 -4.2 °C -7.8 °C 34235.8 hPa Calm   12.9 km/h 67 % 0 mm
18:25 -4.1 °C -7.8 °C 34222.3 hPa North 12.9 km/h 15.6 km/h 66 % 0 mm
18:30 -3.9 °C -7.8 °C 34222.3 hPa Calm   15.6 km/h 65 % 0 mm
18:35 -3.8 °C -7.7 °C 34222.3 hPa Calm     65 % 0 mm
18:40 -3.7 °C -7.5 °C 34222.3 hPa Calm   15.6 km/h 66 % 0 mm
18:45 -3.6 °C -7.6 °C 34222.3 hPa Calm     65 % 0 mm
18:50 -3.4 °C -7.6 °C 34222.3 hPa Calm   12.9 km/h 64 % 0 mm
18:55 -3.4 °C -7.4 °C 34222.3 hPa Calm     64 % 0 mm
19:00 -3.3 °C -7.4 °C 34222.3 hPa Calm     64 % 0 mm
19:05 -3.2 °C -7.5 °C 34222.3 hPa NNW 7.7 km/h 10.3 km/h 63 % 0 mm
19:10 -3.2 °C -7.3 °C 34235.8 hPa NW 20.8 km/h 20.8 km/h 64 % 0 mm
19:15 -3.3 °C -7.6 °C 34235.8 hPa NNW 10.3 km/h 23.3 km/h 63 % 0 mm
19:20 -3.5 °C -7.6 °C 34235.8 hPa Calm   12.9 km/h 64 % 0 mm
19:25 -3.7 °C -7.7 °C 34235.8 hPa West 15.6 km/h 28.5 km/h 64 % 0 mm
19:30 -3.8 °C -7.7 °C 34235.8 hPa Calm   23.3 km/h 65 % 0 mm
19:35 -3.9 °C -7.7 °C 34235.8 hPa Calm   20.8 km/h 66 % 0 mm
19:40 -4.1 °C -7.8 °C 34235.8 hPa WNW 20.8 km/h 25.9 km/h 66 % 0 mm
19:45 -4.1 °C -7.7 °C 34235.8 hPa NNW 10.3 km/h 28.5 km/h 68 % 0 mm
19:50 -4.2 °C -7.5 °C 34235.8 hPa NW 20.8 km/h 28.5 km/h 70 % 0 mm
19:55 -4.4 °C -7.6 °C 34235.8 hPa WNW 28.5 km/h 31.1 km/h 71 % 0 mm
20:00 -4.6 °C -7.5 °C 34235.8 hPa WNW 7.7 km/h 38.8 km/h 73 % 0 mm
20:05 -4.8 °C -7.6 °C 34235.8 hPa WNW 23.3 km/h 31.1 km/h 74 % 0 mm
20:10 -4.9 °C -7.6 °C 34235.8 hPa West 7.7 km/h 31.1 km/h 75 % 0 mm
20:15 -4.9 °C -7.4 °C 34235.8 hPa Calm   31.1 km/h 76 % 0 mm
20:20 -4.9 °C -7.4 °C 34235.8 hPa NW 5.1 km/h 7.7 km/h 76 % 0 mm
20:25 -5 °C -7.5 °C 34235.8 hPa NNW 15.6 km/h 23.3 km/h 76 % 0 mm
20:30 -5.1 °C -7.4 °C 34235.8 hPa NW 10.3 km/h 23.3 km/h 77 % 0 mm
20:35 -5.1 °C -7.4 °C 34235.8 hPa NW 20.8 km/h 23.3 km/h 77 % 0 mm
20:40 -5.2 °C -7.4 °C 34235.8 hPa Calm   25.9 km/h 78 % 0 mm
20:45 -5.2 °C -7.4 °C 34246 hPa North 31.1 km/h 25.9 km/h 79 % 0 mm
20:50 -5.3 °C -7.4 °C 34246 hPa North 25.9 km/h 33.6 km/h 79 % 0 mm
20:55 -5.4 °C -7.3 °C 34246 hPa NNW 10.3 km/h 38.8 km/h 81 % 0 mm
21:00 -5.4 °C -7.4 °C 34246 hPa NNW 25.9 km/h 36.2 km/h 81 % 0 mm
21:05 -5.5 °C -7.3 °C 34246 hPa West 7.7 km/h 28.5 km/h 82 % 0 mm
21:10 -5.5 °C -7.2 °C 34246 hPa WNW 10.3 km/h 23.3 km/h 83 % 0 mm
21:15 -5.6 °C -7.3 °C 34246 hPa NW 15.6 km/h 25.9 km/h 83 % 0 mm
21:20 -5.6 °C -7.3 °C 34256.2 hPa NW 20.8 km/h 25.9 km/h 83 % 0 mm
21:25 -5.6 °C -7.3 °C 34256.2 hPa NW 18.2 km/h 28.5 km/h 83 % 0 mm
21:30 -5.6 °C -7.3 °C 34256.2 hPa NNW 7.7 km/h 25.9 km/h 83 % 0 mm
21:35 -5.6 °C -7.3 °C 34256.2 hPa NNW 12.9 km/h 23.3 km/h 83 % 0 mm
21:40 -5.6 °C -7.3 °C 34256.2 hPa NW 7.7 km/h 18.2 km/h 82 % 0 mm
21:45 -5.5 °C -7.4 °C 34256.2 hPa North 5.1 km/h 23.3 km/h 81 % 0 mm
Stazione meteorologica di Pomezia (RM)
complimenti di Weather Underground - 4 mb

Script sviluppato da  Jim McMurry - jmcmurry@mwt.net Adattato per il modello da  Wim van der Kuil - Leuven-Template.eu

Potete trovare le nostre info meteo anche a:

UK Metoffice

European Weather Network

Weather Underground

AWEKAS

Citizen Weather Observer Program (CWOP)

HAMweather, WeatherForYou, PWS Weather

Strumentazione usata:

Stazione meteo
Davis VP2

Programma gestore dati meteo
WVIEW

Server per i dati meteo
Pc-WDS5

Provider
PC-HP-6005

Davis VP2

WVIEW

Pc-WDS5

PC-HP-6005